User: anonymous   Login
Location: Unspecified
(0.0000°N, 0.0000°E)
Time: 08:57:22
(UTC+00:00)
Language:

MUOS 2 - Orbit

View from above orbital plane
View from above orbital plane
View from above satellite
View from above satellite

Ground track
Ground track

The orbit data is extracted from the following two-line orbital elements,

1 39206U 13036A   17222.32333608 0.00000000  00000-0  00000-0 0    08
2 39206   3.5853 335.4338 0055616   2.3994 357.6534  1.00270000    08
Epoch (UTC): 10 August 2017 07:45:36
Eccentricity: 0.0055616
inclination: 3.5853°
perigee height: 35552 km
apogee height: 36021 km
right ascension of ascending node: 335.4338°
argument of perigee: 2.3994°
revolutions per day: 1.00270000
mean anomaly at epoch: 357.6534°
orbit number at epoch: 0

The dashed part of the orbit path shows where the satellite is in the earth's shadow,  

DLR